AFR604 TFFF-SOCA

Flight info

Callsign AFR604
Flight time N/A
Altitude 23000
Route BORUS2R BORUS A555 BGI/N0455F350 UA555 BUXEX UA247 SILAT
Aircraft A320/M-SDE3FGHIRWY/LB1

Departure

Time 2026-05-01 13:26
Airport Martinique Aimé Césaire International Airport (TFFF)

Arrival

Time N/A
Airport Cayenne – Félix Eboué Airport (SOCA)
Time Latitude Longitude Altitude Speed Heading
2026-05-01 13:07 14.59442 -60.99970 21 ft 0 kts
2026-05-01 13:19 14.59438 -60.99971 18 ft 3 kts
2026-05-01 13:19 14.59389 -60.99972 19 ft 4 kts 336°
2026-05-01 13:20 14.59371 -60.99956 19 ft 4 kts 284°
2026-05-01 13:20 14.59370 -60.99933 20 ft 1 kts 260°
2026-05-01 13:22 14.59365 -60.99960 19 ft 9 kts 260°
2026-05-01 13:22 14.59354 -61.00018 19 ft 7 kts 249°
2026-05-01 13:22 14.59309 -61.00027 20 ft 10 kts 166°
2026-05-01 13:23 14.59213 -61.00027 19 ft 16 kts 174°
2026-05-01 13:23 14.59142 -61.00092 17 ft 15 kts 260°
2026-05-01 13:23 14.59134 -61.00165 17 ft 15 kts 263°
2026-05-01 13:23 14.59113 -61.00287 16 ft 26 kts 257°
2026-05-01 13:24 14.59062 -61.00555 15 ft 46 kts 262°
2026-05-01 13:24 14.59013 -61.00863 22 ft 39 kts 259°
2026-05-01 13:24 14.58973 -61.01086 24 ft 24 kts 264°
2026-05-01 13:25 14.58963 -61.01173 25 ft 6 kts 115°
2026-05-01 13:25 14.58964 -61.01142 24 ft 0 kts 78°
2026-05-01 13:25 14.58982 -61.01053 23 ft 44 kts 79°
2026-05-01 13:25 14.59074 -61.00513 15 ft 106 kts 80°
2026-05-01 13:26 14.59225 -60.99590 25 ft 152 kts 80°
2026-05-01 13:26 14.59416 -60.98490 546 ft 152 kts 80°
2026-05-01 13:26 14.59615 -60.97413 1126 ft 152 kts 82°
2026-05-01 13:26 14.59813 -60.96348 1705 ft 150 kts 79°
2026-05-01 13:27 14.60001 -60.95291 2227 ft 150 kts 81°
2026-05-01 13:27 14.60178 -60.94225 2678 ft 151 kts 82°
2026-05-01 13:27 14.60544 -60.92006 3412 ft 172 kts 81°
2026-05-01 13:28 14.60735 -60.89277 3829 ft 214 kts 110°
2026-05-01 13:28 14.59775 -60.87970 4050 ft 242 kts 135°
2026-05-01 13:29 14.56869 -60.85837 5266 ft 265 kts 144°
2026-05-01 13:29 14.53749 -60.83709 6676 ft 272 kts 142°
2026-05-01 13:30 14.47412 -60.79036 9238 ft 286 kts 141°
2026-05-01 13:31 14.44136 -60.76549 10216 ft 306 kts 142°
2026-05-01 13:31 14.38515 -60.72275 11137 ft 349 kts 143°
2026-05-01 13:32 14.34542 -60.69270 12207 ft 357 kts 143°
2026-05-01 13:33 14.28464 -60.64668 13882 ft 366 kts 144°
2026-05-01 13:33 14.24362 -60.61563 14855 ft 370 kts 144°
2026-05-01 13:34 14.20175 -60.58407 15811 ft 376 kts 145°
2026-05-01 13:34 14.15929 -60.55202 16743 ft 381 kts 146°
2026-05-01 13:35 14.11620 -60.51942 17643 ft 387 kts 145°
2026-05-01 13:35 14.09441 -60.50296 18126 ft 389 kts 146°
2026-05-01 13:35 14.05043 -60.46963 18902 ft 396 kts 143°
2026-05-01 13:36 14.03007 -60.45028 19276 ft 401 kts 136°
2026-05-01 13:36 14.01024 -60.42998 19656 ft 404 kts 136°
2026-05-01 13:36 13.97006 -60.38895 20445 ft 409 kts 137°
2026-05-01 13:37 13.94970 -60.36825 20826 ft 412 kts 137°
2026-05-01 13:37 13.92921 -60.34749 21201 ft 416 kts 137°
2026-05-01 13:37 13.90853 -60.32652 21563 ft 419 kts 137°
2026-05-01 13:37 13.88769 -60.30537 21920 ft 422 kts 137°
2026-05-01 13:38 13.84562 -60.26264 22655 ft 428 kts 137°
2026-05-01 13:38 13.82440 -60.24110 23000 ft 430 kts 137°
2026-05-01 13:38 13.80302 -60.21938 23361 ft 433 kts 137°
2026-05-01 13:39 13.78154 -60.19755 23676 ft 436 kts 137°
2026-05-01 13:39 13.75998 -60.17565 23959 ft 438 kts 137°
2026-05-01 13:39 13.73819 -60.15349 24248 ft 440 kts 137°